Time,TemperatureF,DewpointF,PressureIn,WindDirection,WindDirectionDegrees,WindSpeedMPH,WindSpeedGustMPH,Humidity,HourlyPrecipIn,Conditions,Clouds,dailyrainin,SolarRadiationWatts/m^2,SoftwareType,DateUTC
2013-08-23 00:22:00,50.0,48.0,-100.00,East,86,12.0,17.0,92,0.03,,,0.33,0.000000,,2013-08-23 06:22:00,
2013-08-23 00:32:00,50.0,48.0,-100.00,East,86,12.0,17.0,92,0.03,,,0.33,0.000000,,2013-08-23 06:32:00,
2013-08-23 00:42:00,50.0,48.0,-100.00,East,86,12.0,17.0,92,0.03,,,0.33,0.000000,,2013-08-23 06:42:00,
2013-08-23 00:52:00,50.0,48.0,-100.00,East,86,12.0,17.0,92,0.03,,,0.33,0.000000,,2013-08-23 06:52:00,
2013-08-23 01:22:00,51.0,47.0,-100.00,East,80,12.0,19.0,87,0.00,,,0.33,0.000000,,2013-08-23 07:22:00,
2013-08-23 01:32:00,51.0,47.0,-100.00,East,80,12.0,19.0,87,0.00,,,0.33,0.000000,,2013-08-23 07:32:00,
2013-08-23 01:42:00,51.0,47.0,-100.00,East,80,12.0,19.0,87,0.00,,,0.33,0.000000,,2013-08-23 07:42:00,
2013-08-23 01:52:00,51.0,47.0,-100.00,East,80,12.0,19.0,87,0.00,,,0.33,0.000000,,2013-08-23 07:52:00,
2013-08-23 02:22:00,53.0,47.0,-100.00,East,83,15.0,21.0,81,0.00,,,0.33,0.000000,,2013-08-23 08:22:00,
2013-08-23 02:32:00,53.0,47.0,-100.00,East,83,15.0,21.0,81,0.00,,,0.33,0.000000,,2013-08-23 08:32:00,
2013-08-23 02:42:00,53.0,47.0,-100.00,East,83,15.0,21.0,81,0.00,,,0.33,0.000000,,2013-08-23 08:42:00,
2013-08-23 02:52:00,53.0,47.0,-100.00,East,83,15.0,21.0,81,0.00,,,0.33,0.000000,,2013-08-23 08:52:00,
2013-08-23 03:21:00,52.0,46.0,-100.00,East,83,13.0,20.0,80,0.00,,,0.33,0.000000,,2013-08-23 09:21:00,
2013-08-23 03:33:00,52.0,46.0,-100.00,East,83,13.0,20.0,80,0.00,,,0.33,0.000000,,2013-08-23 09:33:00,
2013-08-23 03:43:00,52.0,46.0,-100.00,East,83,13.0,20.0,80,0.00,,,0.33,0.000000,,2013-08-23 09:43:00,
2013-08-23 03:53:00,52.0,46.0,-100.00,East,83,13.0,20.0,80,0.00,,,0.33,0.000000,,2013-08-23 09:53:00,
2013-08-23 04:23:00,51.0,47.0,-100.00,ENE,75,6.0,17.0,85,0.00,,,0.33,0.000000,,2013-08-23 10:23:00,
2013-08-23 04:33:00,51.0,47.0,-100.00,ENE,75,6.0,17.0,85,0.00,,,0.33,0.000000,,2013-08-23 10:33:00,
2013-08-23 04:42:00,51.0,47.0,-100.00,ENE,75,6.0,17.0,85,0.00,,,0.33,0.000000,,2013-08-23 10:42:00,
2013-08-23 04:52:00,51.0,47.0,-100.00,ENE,75,6.0,17.0,85,0.00,,,0.33,0.000000,,2013-08-23 10:52:00,
2013-08-23 05:22:00,49.0,45.0,-100.00,East,87,8.0,13.0,87,0.00,,,0.33,0.000000,,2013-08-23 11:22:00,
2013-08-23 05:33:00,49.0,45.0,-100.00,East,87,8.0,13.0,87,0.00,,,0.33,0.000000,,2013-08-23 11:33:00,
2013-08-23 05:42:00,49.0,45.0,-100.00,East,87,8.0,13.0,87,0.00,,,0.33,0.000000,,2013-08-23 11:42:00,
2013-08-23 05:53:00,49.0,45.0,-100.00,East,87,8.0,13.0,87,0.00,,,0.33,0.000000,,2013-08-23 11:53:00,
2013-08-23 06:22:00,49.0,45.0,-100.00,ENE,71,7.0,12.0,87,0.00,,,-99.99,0.000000,,2013-08-23 12:22:00,
2013-08-23 06:32:00,49.0,45.0,-100.00,ENE,71,7.0,12.0,87,0.00,,,-99.99,0.000000,,2013-08-23 12:32:00,
2013-08-23 06:42:00,49.0,45.0,-100.00,ENE,71,7.0,12.0,87,0.00,,,-99.99,0.000000,,2013-08-23 12:42:00,
2013-08-23 06:52:00,49.0,45.0,-100.00,ENE,71,7.0,12.0,87,0.00,,,-99.99,0.000000,,2013-08-23 12:52:00,
2013-08-23 07:22:00,48.0,45.0,-100.00,East,80,9.0,14.0,90,0.00,,,0.33,6.000000,,2013-08-23 13:22:00,
2013-08-23 07:32:00,48.0,45.0,-100.00,East,80,9.0,14.0,90,0.00,,,0.33,6.000000,,2013-08-23 13:32:00,
2013-08-23 07:42:00,48.0,45.0,-100.00,East,80,9.0,14.0,90,0.00,,,0.33,6.000000,,2013-08-23 13:42:00,
2013-08-23 07:52:00,48.0,45.0,-100.00,East,80,9.0,14.0,90,0.00,,,0.33,6.000000,,2013-08-23 13:52:00,
2013-08-23 08:22:00,51.0,47.0,-100.00,East,98,9.0,13.0,85,0.00,,,0.33,120.000000,,2013-08-23 14:22:00,
2013-08-23 08:32:00,51.0,47.0,-100.00,East,98,9.0,13.0,85,0.00,,,0.33,120.000000,,2013-08-23 14:32:00,
2013-08-23 08:42:00,51.0,47.0,-100.00,East,98,9.0,13.0,85,0.00,,,0.33,120.000000,,2013-08-23 14:42:00,
2013-08-23 08:52:00,51.0,47.0,-100.00,East,98,9.0,13.0,85,0.00,,,0.33,120.000000,,2013-08-23 14:52:00,
2013-08-23 09:44:00,58.0,48.0,-100.00,East,91,6.0,11.0,69,0.00,,,0.33,288.000000,,2013-08-23 15:44:00,
2013-08-23 09:54:00,58.0,48.0,-100.00,East,91,6.0,11.0,69,0.00,,,0.33,288.000000,,2013-08-23 15:54:00,
2013-08-23 10:42:00,62.0,47.0,-100.00,East,99,6.0,10.0,59,0.00,,,0.33,504.000000,,2013-08-23 16:42:00,
2013-08-23 10:53:00,62.0,47.0,-100.00,East,99,6.0,10.0,59,0.00,,,0.33,504.000000,,2013-08-23 16:53:00,
2013-08-23 11:43:00,67.0,49.0,-100.00,East,98,4.0,7.0,52,0.00,,,0.33,556.000000,,2013-08-23 17:43:00,
2013-08-23 11:53:00,67.0,49.0,-100.00,East,98,4.0,7.0,52,0.00,,,0.33,556.000000,,2013-08-23 17:53:00,
2013-08-23 12:42:00,71.0,46.0,-100.00,WSW,251,7.0,13.0,41,0.00,,,0.33,785.000000,,2013-08-23 18:42:00,
2013-08-23 12:52:00,71.0,46.0,-100.00,WSW,251,7.0,13.0,41,0.00,,,0.33,785.000000,,2013-08-23 18:52:00,
2013-08-23 13:22:00,70.0,45.0,-100.00,West,259,11.0,18.0,41,0.00,,,0.33,859.000000,,2013-08-23 19:22:00,
2013-08-23 13:32:00,70.0,45.0,-100.00,West,259,11.0,18.0,41,0.00,,,0.33,859.000000,,2013-08-23 19:32:00,
2013-08-23 13:42:00,70.0,45.0,-100.00,West,259,11.0,18.0,41,0.00,,,0.33,859.000000,,2013-08-23 19:42:00,
2013-08-23 13:52:00,70.0,45.0,-100.00,West,259,11.0,18.0,41,0.00,,,0.33,859.000000,,2013-08-23 19:52:00,
2013-08-23 14:22:00,69.0,47.0,-100.00,West,279,5.0,13.0,45,0.00,,,0.33,349.000000,,2013-08-23 20:22:00,
2013-08-23 14:32:00,69.0,47.0,-100.00,West,279,5.0,13.0,45,0.00,,,0.33,349.000000,,2013-08-23 20:32:00,
2013-08-23 14:42:00,69.0,47.0,-100.00,West,279,5.0,13.0,45,0.00,,,0.33,349.000000,,2013-08-23 20:42:00,
2013-08-23 14:52:00,69.0,47.0,-100.00,West,279,5.0,13.0,45,0.00,,,0.33,349.000000,,2013-08-23 20:52:00,
2013-08-23 15:22:00,67.0,48.0,-100.00,WNW,290,2.0,8.0,51,0.00,,,0.26,176.000000,,2013-08-23 21:22:00,
2013-08-23 15:34:00,67.0,48.0,-100.00,WNW,290,2.0,8.0,51,0.00,,,0.26,176.000000,,2013-08-23 21:34:00,
2013-08-23 15:54:00,67.0,48.0,-100.00,WNW,290,2.0,8.0,51,0.00,,,0.26,176.000000,,2013-08-23 21:54:00,
2013-08-23 16:24:00,66.0,44.0,-100.00,West,274,8.0,16.0,45,0.00,,,0.23,181.000000,,2013-08-23 22:24:00,
2013-08-23 16:33:00,66.0,44.0,-100.00,West,274,8.0,16.0,45,0.00,,,0.23,181.000000,,2013-08-23 22:33:00,
2013-08-23 16:43:00,66.0,44.0,-100.00,West,274,8.0,16.0,45,0.00,,,0.23,181.000000,,2013-08-23 22:43:00,
2013-08-23 16:53:00,66.0,44.0,-100.00,West,274,8.0,16.0,45,0.00,,,0.23,181.000000,,2013-08-23 22:53:00,
2013-08-23 17:22:00,57.0,45.0,-100.00,ENE,71,6.0,18.0,65,0.03,,,0.26,45.000000,,2013-08-23 23:22:00,
2013-08-23 17:33:00,57.0,45.0,-100.00,ENE,71,6.0,18.0,65,0.03,,,0.26,45.000000,,2013-08-23 23:33:00,
2013-08-23 17:43:00,57.0,45.0,-100.00,ENE,71,6.0,18.0,65,0.03,,,0.26,45.000000,,2013-08-23 23:43:00,
2013-08-23 17:54:00,57.0,45.0,-100.00,ENE,71,6.0,18.0,65,0.03,,,0.26,45.000000,,2013-08-23 23:54:00,
2013-08-23 18:22:00,57.0,46.0,-100.00,West,273,11.0,19.0,67,0.00,,,0.26,121.000000,,2013-08-24 00:22:00,
2013-08-23 18:32:00,57.0,46.0,-100.00,West,273,11.0,19.0,67,0.00,,,0.26,121.000000,,2013-08-24 00:32:00,
2013-08-23 18:43:00,57.0,46.0,-100.00,West,273,11.0,19.0,67,0.00,,,0.26,121.000000,,2013-08-24 00:43:00,
2013-08-23 18:53:00,57.0,46.0,-100.00,West,273,11.0,19.0,67,0.00,,,0.26,121.000000,,2013-08-24 00:53:00,
2013-08-23 19:22:00,59.0,48.0,-100.00,NE,44,2.0,20.0,67,0.00,,,0.26,272.000000,,2013-08-24 01:22:00,
2013-08-23 19:32:00,59.0,48.0,-100.00,NE,44,2.0,20.0,67,0.00,,,0.26,272.000000,,2013-08-24 01:32:00,
2013-08-23 19:42:00,59.0,48.0,-100.00,NE,44,2.0,20.0,67,0.00,,,0.26,272.000000,,2013-08-24 01:42:00,
2013-08-23 19:53:00,59.0,48.0,-100.00,NE,44,2.0,20.0,67,0.00,,,0.26,272.000000,,2013-08-24 01:53:00,
2013-08-23 20:22:00,56.0,45.0,-100.00,NW,322,3.0,7.0,67,0.00,,,0.26,53.000000,,2013-08-24 02:22:00,
2013-08-23 20:32:00,56.0,45.0,-100.00,NW,322,3.0,7.0,67,0.00,,,0.26,53.000000,,2013-08-24 02:32:00,
2013-08-23 20:42:00,56.0,45.0,-100.00,NW,322,3.0,7.0,67,0.00,,,0.26,53.000000,,2013-08-24 02:42:00,
2013-08-23 20:52:00,56.0,45.0,-100.00,NW,322,3.0,7.0,67,0.00,,,0.26,53.000000,,2013-08-24 02:52:00,
2013-08-23 21:22:00,54.0,46.0,-100.00,ENE,67,3.0,5.0,74,0.00,,,0.24,0.000000,,2013-08-24 03:22:00,
2013-08-23 21:34:00,54.0,46.0,-100.00,ENE,67,3.0,5.0,74,0.00,,,0.24,0.000000,,2013-08-24 03:34:00,
2013-08-23 21:44:00,54.0,46.0,-100.00,ENE,67,3.0,5.0,74,0.00,,,0.24,0.000000,,2013-08-24 03:44:00,
2013-08-23 21:54:00,54.0,46.0,-100.00,ENE,67,3.0,5.0,74,0.00,,,0.24,0.000000,,2013-08-24 03:54:00,
2013-08-23 22:24:00,51.0,48.0,-100.00,ENE,72,4.0,8.0,91,0.04,,,0.16,0.000000,,2013-08-24 04:24:00,
2013-08-23 22:34:00,51.0,48.0,-100.00,ENE,72,4.0,8.0,91,0.04,,,0.16,0.000000,,2013-08-24 04:34:00,
2013-08-23 22:44:00,51.0,48.0,-100.00,ENE,72,4.0,8.0,91,0.04,,,0.16,0.000000,,2013-08-24 04:44:00,
2013-08-23 22:53:00,51.0,48.0,-100.00,ENE,72,4.0,8.0,91,0.04,,,0.16,0.000000,,2013-08-24 04:53:00,
2013-08-23 23:23:00,50.0,48.0,-100.00,East,80,6.0,15.0,92,0.03,,,0.13,0.000000,,2013-08-24 05:23:00,
2013-08-23 23:33:00,50.0,48.0,-100.00,East,80,6.0,15.0,92,0.03,,,0.13,0.000000,,2013-08-24 05:33:00,
2013-08-23 23:43:00,50.0,48.0,-100.00,East,80,6.0,15.0,92,0.03,,,0.13,0.000000,,2013-08-24 05:43:00,
2013-08-23 23:53:00,50.0,48.0,-100.00,East,80,6.0,15.0,92,0.03,,,0.13,0.000000,,2013-08-24 05:53:00,